Wetterdaten: Dienstag, 24.02.2015
Datum Zeit Auen-Temp. Temp. -10 cm Luftfeuchte Luftfeuchte Luftdruck Regen Wind Richtung Richtung Taupunkt Windchill Windben
24.02.2015 00:00 2,8 C 1,1 C 86 % 86 % 1007,6 hPa 0,0 l/m 6,6 km/h (2 Bft) SW 225 0,7 C -0,1 C 17,7 km/h (3 Bft)
24.02.2015 00:05 2,7 C 1,1 C 86 % 86 % 1007,6 hPa 0,0 l/m 6,9 km/h (2 Bft) SW 225 0,6 C -0,6 C 10,8 km/h (2 Bft)
24.02.2015 00:10 2,4 C 1,1 C 86 % 86 % 1007,6 hPa 0,0 l/m 8,2 km/h (2 Bft) W-SW 247 0,3 C -2,6 C 16,9 km/h (3 Bft)
24.02.2015 00:15 2,1 C 1,1 C 86 % 86 % 1007,9 hPa 0,0 l/m 7,9 km/h (2 Bft) SW 225 0,0 C -2,3 C 5,0 km/h (1 Bft)
24.02.2015 00:20 1,8 C 1,1 C 86 % 86 % 1007,9 hPa 0,0 l/m 6,8 km/h (2 Bft) SW 225 -0,3 C -1,2 C 5,8 km/h (2 Bft)
24.02.2015 00:25 1,6 C 1,1 C 86 % 86 % 1007,9 hPa 0,0 l/m 6,0 km/h (2 Bft) W-SW 247 -0,5 C -0,7 C 7,2 km/h (2 Bft)
24.02.2015 00:30 1,5 C 1,1 C 86 % 86 % 1007,9 hPa 0,0 l/m 5,0 km/h (1 Bft) SW 225 -0,6 C -0,6 C 4,5 km/h (1 Bft)
24.02.2015 00:35 1,4 C 1,1 C 86 % 86 % 1008,1 hPa 0,0 l/m 4,3 km/h (1 Bft) S 180 -0,7 C -0,4 C 5,6 km/h (1 Bft)
24.02.2015 00:40 1,4 C 1,1 C 86 % 86 % 1008,1 hPa 0,0 l/m 3,7 km/h (1 Bft) S 180 -0,7 C -0,1 C 3,2 km/h (1 Bft)
24.02.2015 00:45 1,4 C 1,1 C 86 % 86 % 1008,1 hPa 0,0 l/m 3,9 km/h (1 Bft) S 180 -0,7 C -0,2 C 7,4 km/h (2 Bft)
24.02.2015 00:50 1,4 C 1,1 C 86 % 86 % 1008,1 hPa 0,0 l/m 4,5 km/h (1 Bft) S-SW 202 -0,7 C -0,6 C 4,8 km/h (1 Bft)
24.02.2015 00:55 1,4 C 1,1 C 86 % 86 % 1008,0 hPa 0,0 l/m 4,3 km/h (1 Bft) W 270 -0,7 C -0,4 C 2,6 km/h (1 Bft)
24.02.2015 01:00 1,3 C 1,1 C 86 % 86 % 1008,0 hPa 0,0 l/m 3,4 km/h (1 Bft) SW 225 -0,8 C 0,1 C 3,2 km/h (1 Bft)
24.02.2015 01:05 1,3 C 1,1 C 86 % 86 % 1008,0 hPa 0,0 l/m 2,6 km/h (1 Bft) SW 225 -0,8 C 0,6 C 3,1 km/h (1 Bft)
24.02.2015 01:10 1,3 C 1,1 C 86 % 86 % 1008,0 hPa 0,0 l/m 2,1 km/h (1 Bft) W-SW 247 -0,8 C 0,6 C 4,7 km/h (1 Bft)
24.02.2015 01:15 1,3 C 1,0 C 86 % 86 % 1007,8 hPa 0,0 l/m 2,3 km/h (1 Bft) SW 225 -0,8 C 0,5 C 3,1 km/h (1 Bft)
24.02.2015 01:20 1,4 C 1,0 C 87 % 87 % 1007,8 hPa 0,0 l/m 2,6 km/h (1 Bft) S 180 -0,5 C 0,4 C 4,5 km/h (1 Bft)
24.02.2015 01:25 1,4 C 1,0 C 87 % 87 % 1007,8 hPa 0,0 l/m 2,9 km/h (1 Bft) S-SO 157 -0,5 C 0,2 C 4,7 km/h (1 Bft)
24.02.2015 01:30 1,6 C 1,0 C 87 % 87 % 1007,8 hPa 0,0 l/m 4,0 km/h (1 Bft) S-SW 202 -0,3 C -0,4 C 4,7 km/h (1 Bft)
24.02.2015 01:35 1,6 C 1,0 C 87 % 87 % 1007,6 hPa 0,0 l/m 4,5 km/h (1 Bft) S 180 -0,3 C -0,6 C 4,8 km/h (1 Bft)
24.02.2015 01:40 1,7 C 1,0 C 87 % 87 % 1007,6 hPa 0,0 l/m 4,7 km/h (1 Bft) SW 225 -0,2 C -0,6 C 5,0 km/h (1 Bft)
24.02.2015 01:45 1,6 C 1,0 C 87 % 87 % 1007,6 hPa 0,0 l/m 4,2 km/h (1 Bft) W-SW 247 -0,3 C -0,3 C 1,8 km/h (1 Bft)
24.02.2015 01:50 1,5 C 1,0 C 87 % 87 % 1007,6 hPa 0,0 l/m 2,9 km/h (1 Bft) O 90 -0,4 C 0,4 C 2,1 km/h (1 Bft)
24.02.2015 01:55 1,3 C 1,0 C 87 % 87 % 1007,4 hPa 0,0 l/m 1,8 km/h (1 Bft) O-SO 112 -0,6 C 0,6 C 0,0 km/h (0 Bft)
24.02.2015 02:00 1,0 C 1,1 C 87 % 87 % 1007,4 hPa 0,0 l/m 0,3 km/h (0 Bft) NO 45 -0,9 C 0,3 C 0,0 km/h (0 Bft)
24.02.2015 02:05 0,9 C 1,1 C 87 % 87 % 1007,4 hPa 0,0 l/m 0,0 km/h (0 Bft) O-NO 67 -1,0 C 0,3 C 0,0 km/h (0 Bft)
24.02.2015 02:10 0,8 C 1,1 C 87 % 87 % 1007,4 hPa 0,0 l/m 0,0 km/h (0 Bft) O-SO 112 -1,1 C 0,1 C 0,0 km/h (0 Bft)
24.02.2015 02:15 0,8 C 1,1 C 87 % 87 % 1007,2 hPa 0,0 l/m 0,0 km/h (0 Bft) S 180 -1,1 C 0,0 C 0,0 km/h (0 Bft)
24.02.2015 02:20 0,8 C 1,1 C 87 % 87 % 1007,2 hPa 0,0 l/m 0,0 km/h (0 Bft) O 90 -1,1 C -0,1 C 0,0 km/h (0 Bft)
24.02.2015 02:25 0,7 C 1,1 C 87 % 87 % 1007,2 hPa 0,0 l/m 0,0 km/h (0 Bft) O-SO 112 -1,2 C -0,1 C 0,0 km/h (0 Bft)
24.02.2015 02:30 0,7 C 1,1 C 87 % 87 % 1007,2 hPa 0,0 l/m 0,0 km/h (0 Bft) S-SO 157 -1,2 C -0,2 C 0,0 km/h (0 Bft)
24.02.2015 02:35 0,7 C 1,1 C 87 % 87 % 1006,9 hPa 0,0 l/m 0,0 km/h (0 Bft) O-SO 112 -1,2 C -0,2 C 0,0 km/h (0 Bft)
24.02.2015 02:40 0,7 C 1,1 C 87 % 87 % 1006,9 hPa 0,0 l/m 0,0 km/h (0 Bft) S-SO 157 -1,2 C -0,2 C 0,0 km/h (0 Bft)
24.02.2015 02:45 0,6 C 1,1 C 87 % 87 % 1006,9 hPa 0,0 l/m 0,0 km/h (0 Bft) S 180 -1,3 C -0,3 C 0,0 km/h (0 Bft)
24.02.2015 02:50 0,5 C 1,1 C 87 % 87 % 1006,9 hPa 0,0 l/m 0,0 km/h (0 Bft) S 180 -1,4 C -0,5 C 0,0 km/h (0 Bft)
24.02.2015 02:55 0,4 C 1,1 C 87 % 87 % 1006,8 hPa 0,0 l/m 0,0 km/h (0 Bft) S-SW 202 -1,5 C -0,5 C 0,0 km/h (0 Bft)
24.02.2015 03:00 0,5 C 1,1 C 87 % 87 % 1006,8 hPa 0,0 l/m 0,0 km/h (0 Bft) SO 135 -1,4 C -0,6 C 0,0 km/h (0 Bft)
24.02.2015 03:05 0,5 C 1,1 C 87 % 87 % 1006,8 hPa 0,0 l/m 0,0 km/h (0 Bft) SO 135 -1,4 C -0,5 C 0,0 km/h (0 Bft)
24.02.2015 03:10 0,3 C 1,1 C 87 % 87 % 1006,8 hPa 0,0 l/m 0,0 km/h (0 Bft) O-NO 67 -1,6 C -0,5 C 0,0 km/h (0 Bft)
24.02.2015 03:15 0,3 C 1,1 C 87 % 87 % 1007,1 hPa 0,0 l/m 0,0 km/h (0 Bft) O-NO 67 -1,6 C -0,5 C 0,0 km/h (0 Bft)
24.02.2015 03:20 0,3 C 1,1 C 87 % 87 % 1007,1 hPa 0,0 l/m 0,0 km/h (0 Bft) O 90 -1,6 C -0,4 C 0,0 km/h (0 Bft)
24.02.2015 03:25 0,3 C 1,1 C 87 % 87 % 1007,1 hPa 0,0 l/m 0,0 km/h (0 Bft) NO 45 -1,6 C -0,4 C 0,0 km/h (0 Bft)
24.02.2015 03:30 0,2 C 1,1 C 87 % 87 % 1007,1 hPa 0,0 l/m 0,0 km/h (0 Bft) O-SO 112 -1,7 C -0,4 C 0,0 km/h (0 Bft)
24.02.2015 03:35 0,2 C 1,1 C 87 % 87 % 1007,2 hPa 0,0 l/m 0,0 km/h (0 Bft) S-SW 202 -1,7 C -0,5 C 0,0 km/h (0 Bft)
24.02.2015 03:40 0,9 C 1,1 C 88 % 88 % 1007,2 hPa 0,0 l/m 1,0 km/h (0 Bft) S 180 -0,9 C -0,1 C 3,7 km/h (1 Bft)
24.02.2015 03:45 1,0 C 1,1 C 88 % 88 % 1007,2 hPa 0,0 l/m 1,3 km/h (1 Bft) SW 225 -0,8 C 0,2 C 5,5 km/h (1 Bft)
24.02.2015 03:50 1,2 C 1,1 C 88 % 88 % 1007,2 hPa 0,0 l/m 1,8 km/h (1 Bft) S 180 -0,6 C 0,3 C 3,9 km/h (1 Bft)
24.02.2015 03:55 1,3 C 1,1 C 88 % 88 % 1007,0 hPa 0,0 l/m 2,3 km/h (1 Bft) SW 225 -0,5 C 0,5 C 3,1 km/h (1 Bft)
24.02.2015 04:00 1,4 C 1,1 C 88 % 88 % 1007,0 hPa 0,0 l/m 2,7 km/h (1 Bft) S 180 -0,4 C 0,5 C 2,3 km/h (1 Bft)
24.02.2015 04:05 1,4 C 1,1 C 88 % 88 % 1007,0 hPa 0,0 l/m 2,6 km/h (1 Bft) S 180 -0,4 C 0,6 C 3,9 km/h (1 Bft)
24.02.2015 04:10 1,6 C 1,0 C 88 % 88 % 1007,0 hPa 0,0 l/m 2,3 km/h (1 Bft) W-SW 247 -0,2 C 0,8 C 0,0 km/h (0 Bft)
24.02.2015 04:15 1,7 C 1,0 C 88 % 88 % 1007,1 hPa 0,0 l/m 3,1 km/h (1 Bft) SW 225 -0,1 C 0,3 C 3,9 km/h (1 Bft)
24.02.2015 04:20 1,8 C 1,0 C 88 % 88 % 1007,1 hPa 0,0 l/m 3,7 km/h (1 Bft) S 180 0,0 C 0,1 C 6,1 km/h (2 Bft)
24.02.2015 04:25 1,8 C 1,0 C 88 % 88 % 1007,1 hPa 0,0 l/m 4,0 km/h (1 Bft) W-SW 247 0,0 C 0,0 C 4,0 km/h (1 Bft)
24.02.2015 04:30 1,7 C 1,0 C 88 % 88 % 1007,1 hPa 0,0 l/m 3,7 km/h (1 Bft) S-SW 202 -0,1 C 0,1 C 4,3 km/h (1 Bft)
24.02.2015 04:35 1,8 C 1,0 C 88 % 88 % 1007,1 hPa 0,0 l/m 3,4 km/h (1 Bft) SW 225 0,0 C 0,4 C 4,8 km/h (1 Bft)
24.02.2015 04:40 1,8 C 1,0 C 87 % 87 % 1007,1 hPa 0,0 l/m 3,4 km/h (1 Bft) W 270 -0,1 C 0,4 C 2,1 km/h (1 Bft)
24.02.2015 04:45 1,7 C 1,0 C 87 % 87 % 1007,1 hPa 0,0 l/m 2,9 km/h (1 Bft) SW 225 -0,2 C 0,7 C 2,6 km/h (1 Bft)
24.02.2015 04:50 1,8 C 1,0 C 87 % 87 % 1007,1 hPa 0,0 l/m 3,2 km/h (1 Bft) SW 225 -0,1 C 0,5 C 4,0 km/h (1 Bft)
24.02.2015 04:55 1,8 C 1,0 C 87 % 87 % 1007,6 hPa 0,0 l/m 3,7 km/h (1 Bft) SW 225 -0,1 C 0,2 C 4,7 km/h (1 Bft)
24.02.2015 05:00 1,9 C 1,0 C 87 % 87 % 1007,6 hPa 0,0 l/m 4,0 km/h (1 Bft) S-SW 202 -0,0 C 0,2 C 4,0 km/h (1 Bft)
24.02.2015 05:05 1,8 C 1,0 C 87 % 87 % 1007,6 hPa 0,0 l/m 4,2 km/h (1 Bft) SW 225 -0,1 C 0,1 C 7,1 km/h (2 Bft)
24.02.2015 05:10 1,8 C 1,0 C 87 % 87 % 1007,6 hPa 0,0 l/m 4,2 km/h (1 Bft) SW 225 -0,1 C 0,1 C 5,5 km/h (1 Bft)
24.02.2015 05:15 1,9 C 1,0 C 87 % 87 % 1007,6 hPa 0,0 l/m 4,8 km/h (1 Bft) S 180 -0,0 C -0,3 C 4,7 km/h (1 Bft)
24.02.2015 05:20 1,7 C 1,0 C 87 % 87 % 1007,6 hPa 0,0 l/m 4,7 km/h (1 Bft) SW 225 -0,2 C -0,2 C 7,6 km/h (2 Bft)
24.02.2015 05:25 1,7 C 1,0 C 86 % 86 % 1007,6 hPa 0,0 l/m 4,0 km/h (1 Bft) NO 45 -0,4 C 0,0 C 4,7 km/h (1 Bft)
24.02.2015 05:30 1,8 C 1,0 C 86 % 86 % 1007,6 hPa 0,0 l/m 5,8 km/h (2 Bft) W 270 -0,3 C -0,7 C 8,0 km/h (2 Bft)
24.02.2015 05:35 1,8 C 1,0 C 86 % 86 % 1007,9 hPa 0,0 l/m 6,9 km/h (2 Bft) N-NW 337 -0,3 C -1,6 C 6,8 km/h (2 Bft)
24.02.2015 05:40 1,7 C 1,0 C 86 % 86 % 1007,9 hPa 0,0 l/m 6,6 km/h (2 Bft) SW 225 -0,4 C -1,2 C 5,5 km/h (1 Bft)
24.02.2015 05:45 1,7 C 1,0 C 86 % 86 % 1007,9 hPa 0,0 l/m 6,4 km/h (2 Bft) W 270 -0,4 C -1,1 C 6,4 km/h (2 Bft)
24.02.2015 05:50 1,6 C 1,0 C 86 % 86 % 1007,9 hPa 0,0 l/m 5,8 km/h (2 Bft) SW 225 -0,5 C -0,8 C 8,0 km/h (2 Bft)
24.02.2015 05:55 1,6 C 1,0 C 86 % 86 % 1008,4 hPa 0,0 l/m 5,6 km/h (1 Bft) SW 225 -0,5 C -0,9 C 10,6 km/h (2 Bft)
24.02.2015 06:00 1,5 C 1,0 C 86 % 86 % 1008,4 hPa 0,0 l/m 5,1 km/h (1 Bft) W-SW 247 -0,6 C -0,7 C 4,8 km/h (1 Bft)
24.02.2015 06:05 1,5 C 1,0 C 86 % 86 % 1008,4 hPa 0,0 l/m 5,1 km/h (1 Bft) W 270 -0,6 C -0,7 C 12,4 km/h (3 Bft)
24.02.2015 06:10 1,4 C 1,0 C 86 % 86 % 1008,4 hPa 0,0 l/m 4,0 km/h (1 Bft) SW 225 -0,7 C -0,2 C 5,5 km/h (1 Bft)
24.02.2015 06:15 1,4 C 1,0 C 86 % 86 % 1008,6 hPa 0,0 l/m 3,7 km/h (1 Bft) S-SW 202 -0,7 C -0,1 C 6,8 km/h (2 Bft)
24.02.2015 06:20 1,4 C 1,0 C 86 % 86 % 1008,6 hPa 0,0 l/m 3,2 km/h (1 Bft) W 270 -0,7 C 0,2 C 1,8 km/h (1 Bft)
24.02.2015 06:25 1,3 C 1,0 C 86 % 86 % 1008,6 hPa 0,0 l/m 2,9 km/h (1 Bft) SO 135 -0,8 C 0,4 C 4,0 km/h (1 Bft)
24.02.2015 06:30 1,3 C 1,0 C 86 % 86 % 1008,6 hPa 0,0 l/m 3,2 km/h (1 Bft) W-SW 247 -0,8 C 0,1 C 5,5 km/h (1 Bft)
24.02.2015 06:35 1,3 C 1,0 C 85 % 85 % 1009,0 hPa 0,0 l/m 3,7 km/h (1 Bft) SW 225 -0,9 C -0,2 C 5,5 km/h (1 Bft)
24.02.2015 06:40 1,3 C 1,0 C 85 % 85 % 1009,0 hPa 0,0 l/m 4,0 km/h (1 Bft) W-SW 247 -0,9 C -0,6 C 4,3 km/h (1 Bft)
24.02.2015 06:45 1,3 C 1,0 C 85 % 85 % 1009,0 hPa 0,0 l/m 3,9 km/h (1 Bft) SW 225 -0,9 C -0,4 C 3,2 km/h (1 Bft)
24.02.2015 06:50 1,3 C 1,0 C 85 % 85 % 1009,0 hPa 0,0 l/m 3,9 km/h (1 Bft) W 270 -0,9 C -0,4 C 6,0 km/h (2 Bft)
24.02.2015 06:55 1,2 C 1,0 C 85 % 85 % 1009,3 hPa 0,0 l/m 3,5 km/h (1 Bft) S 180 -1,0 C -0,2 C 4,5 km/h (1 Bft)
24.02.2015 07:00 1,1 C 1,1 C 85 % 85 % 1009,3 hPa 0,0 l/m 3,1 km/h (1 Bft) S 180 -1,1 C -0,1 C 4,5 km/h (1 Bft)
24.02.2015 07:05 1,1 C 1,1 C 85 % 85 % 1009,3 hPa 0,0 l/m 2,9 km/h (1 Bft) SW 225 -1,1 C 0,1 C 4,5 km/h (1 Bft)
24.02.2015 07:10 1,1 C 1,1 C 85 % 85 % 1009,3 hPa 0,0 l/m 3,5 km/h (1 Bft) S-SW 202 -1,1 C -0,5 C 4,8 km/h (1 Bft)
24.02.2015 07:15 1,2 C 1,1 C 85 % 85 % 1009,5 hPa 0,0 l/m 3,9 km/h (1 Bft) S 180 -1,0 C -0,6 C 2,7 km/h (1 Bft)
24.02.2015 07:20 1,2 C 1,1 C 85 % 85 % 1009,5 hPa 0,0 l/m 3,9 km/h (1 Bft) S 180 -1,0 C -0,6 C 4,7 km/h (1 Bft)
24.02.2015 07:25 1,2 C 1,1 C 85 % 85 % 1009,5 hPa 0,0 l/m 3,5 km/h (1 Bft) SW 225 -1,0 C -0,4 C 6,1 km/h (2 Bft)
24.02.2015 07:30 1,2 C 1,1 C 85 % 85 % 1009,5 hPa 0,0 l/m 3,5 km/h (1 Bft) S 180 -1,0 C -0,4 C 2,3 km/h (1 Bft)
24.02.2015 07:35 1,2 C 1,1 C 84 % 84 % 1009,8 hPa 0,0 l/m 3,2 km/h (1 Bft) S-SW 202 -1,2 C -0,1 C 4,2 km/h (1 Bft)
24.02.2015 07:40 1,2 C 1,1 C 84 % 84 % 1009,8 hPa 0,0 l/m 2,1 km/h (1 Bft) SW 225 -1,2 C 0,5 C 1,6 km/h (1 Bft)
24.02.2015 07:45 1,1 C 1,1 C 84 % 84 % 1009,8 hPa 0,0 l/m 1,8 km/h (1 Bft) W-SW 247 -1,3 C 0,5 C 1,6 km/h (1 Bft)
24.02.2015 07:50 1,1 C 1,0 C 84 % 84 % 1009,8 hPa 0,0 l/m 2,9 km/h (1 Bft) NW 315 -1,3 C 0,2 C 8,4 km/h (2 Bft)
24.02.2015 07:55 1,1 C 1,0 C 84 % 84 % 1010,1 hPa 0,0 l/m 4,2 km/h (1 Bft) SW 225 -1,3 C -0,6 C 4,0 km/h (1 Bft)
24.02.2015 08:00 1,0 C 1,0 C 84 % 84 % 1010,1 hPa 0,0 l/m 5,1 km/h (1 Bft) W 270 -1,4 C -1,2 C 6,8 km/h (2 Bft)
24.02.2015 08:05 0,9 C 1,0 C 84 % 84 % 1010,1 hPa 0,0 l/m 5,5 km/h (1 Bft) W-NW 292 -1,5 C -1,5 C 10,1 km/h (2 Bft)
24.02.2015 08:10 0,8 C 1,1 C 84 % 84 % 1010,1 hPa 0,0 l/m 5,6 km/h (1 Bft) W 270 -1,6 C -1,6 C 6,3 km/h (2 Bft)
24.02.2015 08:15 0,8 C 1,2 C 84 % 84 % 1010,4 hPa 0,0 l/m 5,3 km/h (1 Bft) W-SW 247 -1,6 C -1,4 C 6,3 km/h (2 Bft)
24.02.2015 08:20 0,8 C 1,2 C 85 % 85 % 1010,4 hPa 0,0 l/m 4,2 km/h (1 Bft) W-SW 247 -1,4 C -0,9 C 3,1 km/h (1 Bft)
24.02.2015 08:25 0,8 C 1,2 C 85 % 85 % 1010,4 hPa 0,0 l/m 3,7 km/h (1 Bft) W-SW 247 -1,4 C -0,6 C 5,1 km/h (1 Bft)
24.02.2015 08:30 0,9 C 1,1 C 85 % 85 % 1010,4 hPa 0,0 l/m 3,5 km/h (1 Bft) W 270 -1,3 C -0,5 C 4,5 km/h (1 Bft)
24.02.2015 08:35 0,9 C 1,1 C 85 % 85 % 1010,8 hPa 0,0 l/m 3,9 km/h (1 Bft) W 270 -1,3 C -0,7 C 5,8 km/h (2 Bft)
24.02.2015 08:40 0,9 C 1,1 C 85 % 85 % 1010,8 hPa 0,0 l/m 4,0 km/h (1 Bft) W 270 -1,3 C -0,7 C 2,1 km/h (1 Bft)
24.02.2015 08:45 1,0 C 1,1 C 85 % 85 % 1010,8 hPa 0,0 l/m 3,1 km/h (1 Bft) W 270 -1,2 C -0,1 C 4,3 km/h (1 Bft)
24.02.2015 08:50 1,1 C 1,1 C 85 % 85 % 1010,8 hPa 0,0 l/m 1,9 km/h (1 Bft) W-SW 247 -1,1 C 0,5 C 0,0 km/h (0 Bft)
24.02.2015 08:55 1,2 C 1,1 C 85 % 85 % 1011,1 hPa 0,0 l/m 1,9 km/h (1 Bft) W-SW 247 -1,0 C 0,6 C 3,5 km/h (1 Bft)
24.02.2015 09:00 1,4 C 1,1 C 85 % 85 % 1011,1 hPa 0,0 l/m 2,6 km/h (1 Bft) SW 225 -0,8 C 0,8 C 3,4 km/h (1 Bft)
24.02.2015 09:05 1,5 C 1,1 C 85 % 85 % 1011,1 hPa 0,0 l/m 3,2 km/h (1 Bft) W-SW 247 -0,7 C 0,5 C 3,7 km/h (1 Bft)
24.02.2015 09:10 1,6 C 1,1 C 85 % 85 % 1011,1 hPa 0,0 l/m 3,2 km/h (1 Bft) W 270 -0,6 C 0,8 C 6,0 km/h (2 Bft)
24.02.2015 09:15 1,6 C 1,1 C 84 % 84 % 1011,3 hPa 0,0 l/m 3,7 km/h (1 Bft) W-NW 292 -0,8 C 0,5 C 4,3 km/h (1 Bft)
24.02.2015 09:20 1,5 C 1,1 C 84 % 84 % 1011,3 hPa 0,0 l/m 4,5 km/h (1 Bft) W 270 -0,9 C 0,1 C 7,4 km/h (2 Bft)
24.02.2015 09:25 1,6 C 1,1 C 83 % 83 % 1011,3 hPa 0,0 l/m 5,0 km/h (1 Bft) W-NW 292 -1,0 C -0,2 C 6,8 km/h (2 Bft)
24.02.2015 09:30 1,7 C 1,1 C 83 % 83 % 1011,3 hPa 0,0 l/m 5,0 km/h (1 Bft) W-SW 247 -0,9 C 0,1 C 10,6 km/h (2 Bft)
24.02.2015 09:35 1,6 C 1,1 C 82 % 82 % 1011,4 hPa 0,0 l/m 5,0 km/h (1 Bft) W-SW 247 -1,1 C 0,2 C 6,3 km/h (2 Bft)
24.02.2015 09:40 1,6 C 1,1 C 81 % 81 % 1011,4 hPa 0,0 l/m 6,3 km/h (2 Bft) W 270 -1,3 C -0,3 C 7,7 km/h (2 Bft)
24.02.2015 09:45 1,7 C 1,1 C 81 % 81 % 1011,4 hPa 0,0 l/m 6,8 km/h (2 Bft) W 270 -1,2 C -0,8 C 12,4 km/h (3 Bft)
24.02.2015 09:50 1,6 C 1,1 C 79 % 79 % 1011,4 hPa 0,0 l/m 7,6 km/h (2 Bft) W-NW 292 -1,6 C -2,0 C 7,2 km/h (2 Bft)
24.02.2015 09:55 1,5 C 1,1 C 79 % 79 % 1011,6 hPa 0,0 l/m 7,1 km/h (2 Bft) W 270 -1,7 C -1,4 C 4,5 km/h (1 Bft)
24.02.2015 10:00 1,5 C 1,1 C 80 % 80 % 1011,6 hPa 0,0 l/m 5,8 km/h (2 Bft) W-SW 247 -1,6 C -0,5 C 6,4 km/h (2 Bft)
24.02.2015 10:05 1,6 C 1,1 C 80 % 80 % 1011,6 hPa 0,0 l/m 5,5 km/h (1 Bft) S 180 -1,5 C -0,2 C 10,1 km/h (2 Bft)
24.02.2015 10:10 1,5 C 1,1 C 80 % 80 % 1011,6 hPa 0,0 l/m 5,6 km/h (1 Bft) O 90 -1,6 C -0,4 C 10,1 km/h (2 Bft)
24.02.2015 10:15 1,4 C 1,1 C 79 % 79 % 1012,1 hPa 0,0 l/m 5,8 km/h (2 Bft) W 270 -1,8 C -0,6 C 5,8 km/h (2 Bft)
24.02.2015 10:20 1,5 C 1,1 C 79 % 79 % 1012,1 hPa 0,0 l/m 5,6 km/h (1 Bft) W 270 -1,7 C -0,5 C 8,7 km/h (2 Bft)
24.02.2015 10:25 1,8 C 1,1 C 79 % 79 % 1012,1 hPa 0,0 l/m 5,0 km/h (1 Bft) W 270 -1,4 C 0,0 C 4,3 km/h (1 Bft)
24.02.2015 10:30 2,3 C 1,1 C 79 % 79 % 1012,1 hPa 0,0 l/m 3,4 km/h (1 Bft) W-SW 247 -1,0 C 1,5 C 2,4 km/h (1 Bft)
24.02.2015 10:35 2,4 C 1,1 C 79 % 79 % 1012,1 hPa 0,0 l/m 2,7 km/h (1 Bft) W-SW 247 -0,9 C 2,3 C 4,5 km/h (1 Bft)
24.02.2015 10:40 2,4 C 1,1 C 78 % 78 % 1012,1 hPa 0,0 l/m 2,9 km/h (1 Bft) NW 315 -1,0 C 2,7 C 3,9 km/h (1 Bft)
24.02.2015 10:45 2,5 C 1,1 C 78 % 78 % 1012,1 hPa 0,0 l/m 3,4 km/h (1 Bft) SW 225 -0,9 C 2,6 C 4,7 km/h (1 Bft)
24.02.2015 10:50 2,7 C 1,1 C 77 % 77 % 1012,1 hPa 0,0 l/m 3,7 km/h (1 Bft) W 270 -0,9 C 2,7 C 3,9 km/h (1 Bft)
24.02.2015 10:55 2,8 C 1,1 C 77 % 77 % 1012,1 hPa 0,0 l/m 4,3 km/h (1 Bft) NO 45 -0,8 C 2,7 C 9,3 km/h (2 Bft)
24.02.2015 11:00 3,1 C 1,1 C 75 % 75 % 1012,1 hPa 0,0 l/m 4,2 km/h (1 Bft) S-SO 157 -0,9 C 3,2 C 4,0 km/h (1 Bft)
24.02.2015 11:05 3,2 C 1,1 C 75 % 75 % 1012,1 hPa 0,0 l/m 4,2 km/h (1 Bft) W 270 -0,8 C 3,4 C 10,8 km/h (2 Bft)
24.02.2015 11:10 3,2 C 1,1 C 74 % 74 % 1012,1 hPa 0,0 l/m 3,7 km/h (1 Bft) SW 225 -1,0 C 3,8 C 2,9 km/h (1 Bft)
24.02.2015 11:15 3,5 C 1,1 C 74 % 74 % 1012,2 hPa 0,0 l/m 3,5 km/h (1 Bft) SW 225 -0,7 C 4,2 C 3,1 km/h (1 Bft)
24.02.2015 11:20 3,7 C 1,1 C 73 % 73 % 1012,2 hPa 0,0 l/m 3,4 km/h (1 Bft) S 180 -0,7 C 4,9 C 4,3 km/h (1 Bft)
24.02.2015 11:25 3,8 C 1,1 C 72 % 72 % 1012,2 hPa 0,0 l/m 3,2 km/h (1 Bft) SW 225 -0,8 C 5,2 C 0,0 km/h (0 Bft)
24.02.2015 11:30 4,5 C 1,1 C 72 % 72 % 1012,2 hPa 0,0 l/m 2,6 km/h (1 Bft) W 270 -0,1 C 5,6 C 5,1 km/h (1 Bft)
24.02.2015 11:35 4,5 C 1,1 C 71 % 71 % 1012,4 hPa 0,0 l/m 2,4 km/h (1 Bft) W 270 -0,3 C 5,9 C 3,9 km/h (1 Bft)
24.02.2015 11:40 4,1 C 1,1 C 68 % 68 % 1012,4 hPa 0,0 l/m 4,7 km/h (1 Bft) W 270 -1,3 C 5,0 C 5,8 km/h (2 Bft)
24.02.2015 11:45 4,1 C 1,1 C 68 % 68 % 1012,4 hPa 0,0 l/m 5,1 km/h (1 Bft) W-NW 292 -1,3 C 4,6 C 4,2 km/h (1 Bft)
24.02.2015 11:50 4,5 C 1,1 C 68 % 68 % 1012,4 hPa 0,0 l/m 4,8 km/h (1 Bft) W-SW 247 -0,9 C 4,8 C 4,0 km/h (1 Bft)
24.02.2015 11:55 4,3 C 1,1 C 67 % 67 % 1012,6 hPa 0,0 l/m 5,1 km/h (1 Bft) N-NW 337 -1,3 C 5,1 C 6,0 km/h (2 Bft)
24.02.2015 12:00 4,2 C 1,1 C 66 % 66 % 1012,6 hPa 0,0 l/m 6,0 km/h (2 Bft) SW 225 -1,6 C 4,6 C 6,4 km/h (2 Bft)
24.02.2015 12:05 4,4 C 1,1 C 66 % 66 % 1012,6 hPa 0,0 l/m 6,1 km/h (2 Bft) W 270 -1,4 C 4,6 C 7,2 km/h (2 Bft)
24.02.2015 12:10 4,5 C 1,1 C 64 % 64 % 1012,6 hPa 0,0 l/m 6,4 km/h (2 Bft) W-SW 247 -1,7 C 4,8 C 8,5 km/h (2 Bft)
24.02.2015 12:15 4,3 C 1,1 C 65 % 65 % 1012,8 hPa 0,0 l/m 6,4 km/h (2 Bft) SW 225 -1,7 C 4,8 C 4,2 km/h (1 Bft)
24.02.2015 12:20 4,9 C 1,1 C 65 % 65 % 1012,8 hPa 0,0 l/m 5,1 km/h (1 Bft) W-SW 247 -1,1 C 5,7 C 5,6 km/h (1 Bft)
24.02.2015 12:25 4,7 C 1,1 C 64 % 64 % 1012,8 hPa 0,0 l/m 5,0 km/h (1 Bft) W-SW 247 -1,5 C 6,1 C 6,6 km/h (2 Bft)
24.02.2015 12:30 4,9 C 1,1 C 63 % 63 % 1012,8 hPa 0,0 l/m 5,1 km/h (1 Bft) W-SW 247 -1,5 C 6,0 C 5,5 km/h (1 Bft)
24.02.2015 12:35 5,1 C 1,1 C 63 % 63 % 1013,0 hPa 0,0 l/m 5,0 km/h (1 Bft) W 270 -1,4 C 6,2 C 12,1 km/h (2 Bft)
24.02.2015 12:40 4,4 C 1,1 C 63 % 63 % 1013,0 hPa 0,0 l/m 6,1 km/h (2 Bft) W 270 -2,0 C 5,3 C 8,2 km/h (2 Bft)
24.02.2015 12:45 4,7 C 1,1 C 63 % 63 % 1013,0 hPa 0,0 l/m 6,4 km/h (2 Bft) NW 315 -1,7 C 5,2 C 3,4 km/h (1 Bft)
24.02.2015 12:50 4,5 C 1,1 C 62 % 62 % 1013,0 hPa 0,0 l/m 6,0 km/h (2 Bft) N-NO 22 -2,1 C 5,0 C 4,5 km/h (1 Bft)
24.02.2015 12:55 4,1 C 1,1 C 62 % 62 % 1013,2 hPa 0,0 l/m 6,1 km/h (2 Bft) W-SW 247 -2,5 C 4,9 C 7,6 km/h (2 Bft)
24.02.2015 13:00 3,9 C 1,1 C 63 % 63 % 1013,2 hPa 0,0 l/m 6,1 km/h (2 Bft) W 270 -2,5 C 4,2 C 6,9 km/h (2 Bft)
24.02.2015 13:05 4,0 C 1,1 C 63 % 63 % 1013,2 hPa 0,0 l/m 6,0 km/h (2 Bft) NW 315 -2,4 C 4,2 C 8,0 km/h (2 Bft)
24.02.2015 13:10 3,7 C 1,1 C 62 % 62 % 1013,2 hPa 0,0 l/m 6,1 km/h (2 Bft) W 270 -2,9 C 4,0 C 6,6 km/h (2 Bft)
24.02.2015 13:15 3,9 C 1,1 C 63 % 63 % 1013,1 hPa 0,0 l/m 6,6 km/h (2 Bft) W 270 -2,5 C 3,6 C 7,2 km/h (2 Bft)
24.02.2015 13:20 4,1 C 1,1 C 62 % 62 % 1013,1 hPa 0,0 l/m 6,0 km/h (2 Bft) W-SW 247 -2,5 C 4,1 C 2,9 km/h (1 Bft)
24.02.2015 13:25 4,2 C 1,1 C 61 % 61 % 1013,1 hPa 0,0 l/m 5,5 km/h (1 Bft) W-SW 247 -2,6 C 4,3 C 15,0 km/h (3 Bft)
24.02.2015 13:28 4,6 C 1,1 C 61 % 61 % 1013,1 hPa 0,0 l/m 4,3 km/h (1 Bft) S 180 -2,3 C 5,0 C 4,8 km/h (1 Bft)
24.02.2015 13:33 4,2 C 1,1 C 59 % 59 % 1013,2 hPa 0,0 l/m 5,0 km/h (1 Bft) W-SW 247 -3,1 C 4,9 C 5,1 km/h (1 Bft)
24.02.2015 13:38 3,9 C 1,1 C 59 % 59 % 1013,2 hPa 0,0 l/m 6,0 km/h (2 Bft) NW 315 -3,4 C 4,1 C 9,2 km/h (2 Bft)
24.02.2015 13:43 3,8 C 1,1 C 59 % 59 % 1013,2 hPa 0,0 l/m 6,9 km/h (2 Bft) W-SW 247 -3,5 C 3,2 C 7,2 km/h (2 Bft)
24.02.2015 13:48 3,7 C 1,1 C 59 % 59 % 1013,2 hPa 0,0 l/m 7,4 km/h (2 Bft) S-SW 202 -3,6 C 1,9 C 8,9 km/h (2 Bft)
24.02.2015 13:53 3,8 C 1,1 C 59 % 59 % 1013,4 hPa 0,0 l/m 6,3 km/h (2 Bft) W-NW 292 -3,5 C 3,3 C 5,5 km/h (1 Bft)
24.02.2015 13:58 4,2 C 1,1 C 59 % 59 % 1013,4 hPa 0,0 l/m 3,9 km/h (1 Bft) N-NW 337 -3,1 C 4,7 C 2,6 km/h (1 Bft)
24.02.2015 14:03 3,9 C 1,1 C 59 % 59 % 1013,4 hPa 0,0 l/m 3,7 km/h (1 Bft) NW 315 -3,4 C 4,9 C 4,5 km/h (1 Bft)
24.02.2015 14:08 3,9 C 1,1 C 59 % 59 % 1013,4 hPa 0,0 l/m 4,3 km/h (1 Bft) W-SW 247 -3,4 C 4,7 C 8,7 km/h (2 Bft)
24.02.2015 14:13 4,1 C 1,1 C 59 % 59 % 1013,8 hPa 0,0 l/m 3,9 km/h (1 Bft) S-SW 202 -3,2 C 4,9 C 1,8 km/h (1 Bft)
24.02.2015 14:18 3,3 C 1,1 C 58 % 58 % 1013,8 hPa 0,0 l/m 6,3 km/h (2 Bft) W 270 -4,2 C 3,3 C 8,0 km/h (2 Bft)
24.02.2015 14:23 3,4 C 1,1 C 59 % 59 % 1013,8 hPa 0,0 l/m 7,6 km/h (2 Bft) W 270 -3,8 C 1,6 C 10,1 km/h (2 Bft)
24.02.2015 14:28 3,6 C 1,1 C 59 % 59 % 1013,8 hPa 0,0 l/m 6,9 km/h (2 Bft) W-SW 247 -3,6 C 2,1 C 4,8 km/h (1 Bft)
24.02.2015 14:33 3,7 C 1,1 C 59 % 59 % 1013,7 hPa 0,0 l/m 5,0 km/h (1 Bft) NW 315 -3,6 C 3,6 C 2,4 km/h (1 Bft)
24.02.2015 14:38 3,9 C 1,1 C 59 % 59 % 1013,7 hPa 0,0 l/m 3,7 km/h (1 Bft) W-SW 247 -3,4 C 4,7 C 9,0 km/h (2 Bft)
24.02.2015 14:43 3,7 C 1,1 C 59 % 59 % 1013,7 hPa 0,0 l/m 3,4 km/h (1 Bft) W-SW 247 -3,6 C 4,8 C 4,5 km/h (1 Bft)
24.02.2015 14:48 3,5 C 1,1 C 59 % 59 % 1013,7 hPa 0,0 l/m 3,9 km/h (1 Bft) NW 315 -3,7 C 4,3 C 5,1 km/h (1 Bft)
24.02.2015 14:53 3,4 C 1,1 C 59 % 59 % 1013,8 hPa 0,0 l/m 4,3 km/h (1 Bft) W-SW 247 -3,8 C 3,9 C 5,5 km/h (1 Bft)
24.02.2015 14:58 3,3 C 1,1 C 59 % 59 % 1013,8 hPa 0,0 l/m 4,7 km/h (1 Bft) W 270 -3,9 C 3,5 C 7,4 km/h (2 Bft)
24.02.2015 15:03 3,4 C 1,1 C 60 % 60 % 1013,8 hPa 0,0 l/m 4,3 km/h (1 Bft) W 270 -3,6 C 3,6 C 4,8 km/h (1 Bft)
24.02.2015 15:08 3,4 C 1,1 C 59 % 59 % 1013,8 hPa 0,0 l/m 4,0 km/h (1 Bft) W 270 -3,8 C 3,7 C 5,3 km/h (1 Bft)
24.02.2015 15:13 3,3 C 1,0 C 59 % 59 % 1014,0 hPa 0,0 l/m 4,2 km/h (1 Bft) W-SW 247 -3,9 C 3,6 C 4,5 km/h (1 Bft)
24.02.2015 15:18 2,8 C 1,0 C 59 % 59 % 1014,0 hPa 0,0 l/m 6,9 km/h (2 Bft) W 270 -4,4 C 1,4 C 9,2 km/h (2 Bft)
24.02.2015 15:23 2,9 C 1,0 C 59 % 59 % 1014,0 hPa 0,0 l/m 7,6 km/h (2 Bft) SW 225 -4,3 C 0,2 C 5,3 km/h (1 Bft)
24.02.2015 15:28 3,0 C 1,0 C 59 % 59 % 1014,0 hPa 0,0 l/m 6,0 km/h (2 Bft) W 270 -4,2 C 1,7 C 6,8 km/h (2 Bft)
24.02.2015 15:33 3,0 C 1,0 C 59 % 59 % 1014,1 hPa 0,0 l/m 6,0 km/h (2 Bft) W 270 -4,2 C 1,7 C 11,1 km/h (2 Bft)
24.02.2015 15:38 2,9 C 1,0 C 59 % 59 % 1014,1 hPa 0,0 l/m 6,0 km/h (2 Bft) W-SW 247 -4,3 C 1,7 C 7,6 km/h (2 Bft)
24.02.2015 15:41 2,9 C 1,0 C 59 % 59 % 1014,1 hPa 0,0 l/m 6,0 km/h (2 Bft) W-SW 247 -4,3 C 1,7 C 7,6 km/h (2 Bft)
24.02.2015 15:45 2,8 C 1,0 C 60 % 60 % 1014,1 hPa 0,0 l/m 5,3 km/h (1 Bft) NW 315 -4,2 C 2,0 C 4,3 km/h (1 Bft)
24.02.2015 15:50 2,7 C 1,0 C 61 % 61 % 1014,1 hPa 0,0 l/m 4,3 km/h (1 Bft) W-SW 247 -4,1 C 2,3 C 5,3 km/h (1 Bft)
24.02.2015 15:55 2,7 C 1,0 C 61 % 61 % 1014,2 hPa 0,0 l/m 4,5 km/h (1 Bft) W 270 -4,1 C 2,2 C 5,8 km/h (2 Bft)
24.02.2015 16:00 2,6 C 1,0 C 62 % 62 % 1014,2 hPa 0,0 l/m 4,3 km/h (1 Bft) W 270 -3,9 C 2,1 C 7,4 km/h (2 Bft)
24.02.2015 16:05 2,5 C 1,0 C 62 % 62 % 1014,2 hPa 0,0 l/m 4,7 km/h (1 Bft) S-SW 202 -4,0 C 1,7 C 4,5 km/h (1 Bft)
24.02.2015 16:10 2,4 C 1,0 C 62 % 62 % 1014,2 hPa 0,0 l/m 4,8 km/h (1 Bft) W-NW 292 -4,1 C 1,6 C 6,1 km/h (2 Bft)
24.02.2015 16:15 2,2 C 1,0 C 63 % 63 % 1014,1 hPa 0,0 l/m 4,8 km/h (1 Bft) W-SW 247 -4,1 C 1,4 C 6,6 km/h (2 Bft)
24.02.2015 16:20 2,1 C 1,0 C 63 % 63 % 1014,1 hPa 0,0 l/m 5,0 km/h (1 Bft) W-SW 247 -4,2 C 1,0 C 6,8 km/h (2 Bft)
24.02.2015 16:25 2,0 C 1,0 C 64 % 64 % 1014,1 hPa 0,0 l/m 4,7 km/h (1 Bft) W-SW 247 -4,1 C 0,9 C 4,7 km/h (1 Bft)
24.02.2015 16:30 2,1 C 1,0 C 64 % 64 % 1014,1 hPa 0,0 l/m 4,0 km/h (1 Bft) W 270 -4,0 C 1,0 C 6,3 km/h (2 Bft)
24.02.2015 16:35 2,0 C 1,0 C 65 % 65 % 1014,5 hPa 0,0 l/m 2,9 km/h (1 Bft) SW 225 -3,9 C 1,7 C 2,1 km/h (1 Bft)
24.02.2015 16:40 1,9 C 1,0 C 65 % 65 % 1014,5 hPa 0,0 l/m 2,1 km/h (1 Bft) S 180 -4,0 C 1,8 C 1,6 km/h (1 Bft)
24.02.2015 16:45 1,8 C 1,0 C 65 % 65 % 1014,5 hPa 0,0 l/m 2,4 km/h (1 Bft) SW 225 -4,1 C 1,7 C 4,3 km/h (1 Bft)
24.02.2015 16:50 1,6 C 1,0 C 66 % 66 % 1014,5 hPa 0,0 l/m 2,9 km/h (1 Bft) W-SW 247 -4,1 C 1,2 C 2,3 km/h (1 Bft)
24.02.2015 16:55 1,4 C 1,0 C 66 % 66 % 1014,8 hPa 0,0 l/m 2,9 km/h (1 Bft) S 180 -4,2 C 0,9 C 4,7 km/h (1 Bft)
24.02.2015 17:00 1,2 C 1,0 C 67 % 67 % 1014,8 hPa 0,0 l/m 2,6 km/h (1 Bft) SW 225 -4,2 C 0,8 C 4,0 km/h (1 Bft)
24.02.2015 17:05 1,1 C 1,0 C 67 % 67 % 1014,8 hPa 0,0 l/m 2,4 km/h (1 Bft) W-SW 247 -4,3 C 0,7 C 0,0 km/h (0 Bft)
24.02.2015 17:10 1,0 C 1,0 C 68 % 68 % 1014,8 hPa 0,0 l/m 3,2 km/h (1 Bft) SW 225 -4,2 C -0,2 C 2,9 km/h (1 Bft)
24.02.2015 17:15 0,9 C 1,1 C 68 % 68 % 1014,8 hPa 0,0 l/m 3,7 km/h (1 Bft) S-SW 202 -4,3 C -0,6 C 4,8 km/h (1 Bft)
24.02.2015 17:20 0,8 C 1,1 C 69 % 69 % 1014,8 hPa 0,0 l/m 3,9 km/h (1 Bft) SW 225 -4,2 C -0,9 C 3,5 km/h (1 Bft)
24.02.2015 17:25 0,7 C 1,1 C 69 % 69 % 1014,8 hPa 0,0 l/m 3,9 km/h (1 Bft) S-SW 202 -4,3 C -1,0 C 3,9 km/h (1 Bft)
24.02.2015 17:30 0,6 C 1,1 C 70 % 70 % 1014,8 hPa 0,0 l/m 4,0 km/h (1 Bft) N-NW 337 -4,2 C -1,3 C 6,3 km/h (2 Bft)
24.02.2015 17:35 0,5 C 1,1 C 71 % 71 % 1015,1 hPa 0,0 l/m 4,2 km/h (1 Bft) S 180 -4,1 C -1,6 C 4,8 km/h (1 Bft)
24.02.2015 17:40 0,3 C 1,1 C 71 % 71 % 1015,1 hPa 0,0 l/m 3,5 km/h (1 Bft) SW 225 -4,3 C -1,4 C 4,8 km/h (1 Bft)
24.02.2015 17:45 0,2 C 1,1 C 71 % 71 % 1015,1 hPa 0,0 l/m 3,5 km/h (1 Bft) S 180 -4,4 C -1,7 C 7,1 km/h (2 Bft)
24.02.2015 17:50 0,1 C 1,1 C 72 % 72 % 1015,1 hPa 0,0 l/m 3,5 km/h (1 Bft) SW 225 -4,3 C -1,8 C 3,7 km/h (1 Bft)
24.02.2015 17:55 -0,1 C 1,1 C 72 % 72 % 1015,5 hPa 0,0 l/m 2,9 km/h (1 Bft) SW 225 -4,5 C -1,6 C 5,5 km/h (1 Bft)
24.02.2015 18:00 -0,2 C 1,1 C 73 % 73 % 1015,5 hPa 0,0 l/m 2,7 km/h (1 Bft) S-SW 202 -4,4 C -1,7 C 2,3 km/h (1 Bft)
24.02.2015 18:05 -0,2 C 1,1 C 73 % 73 % 1015,5 hPa 0,0 l/m 3,2 km/h (1 Bft) S 180 -4,4 C -2,1 C 3,9 km/h (1 Bft)
24.02.2015 18:10 -0,2 C 1,1 C 73 % 73 % 1015,5 hPa 0,0 l/m 3,9 km/h (1 Bft) S 180 -4,4 C -2,6 C 5,5 km/h (1 Bft)
24.02.2015 18:15 -0,3 C 1,1 C 73 % 73 % 1015,7 hPa 0,0 l/m 3,9 km/h (1 Bft) S-SW 202 -4,5 C -2,7 C 4,3 km/h (1 Bft)
24.02.2015 18:20 -0,4 C 1,1 C 74 % 74 % 1015,7 hPa 0,0 l/m 3,4 km/h (1 Bft) S-SO 157 -4,5 C -2,4 C 3,2 km/h (1 Bft)
24.02.2015 18:25 -0,5 C 1,1 C 74 % 74 % 1015,7 hPa 0,0 l/m 3,2 km/h (1 Bft) W-SW 247 -4,5 C -2,5 C 3,1 km/h (1 Bft)
24.02.2015 18:30 -0,6 C 1,1 C 74 % 74 % 1015,7 hPa 0,0 l/m 2,9 km/h (1 Bft) S-SO 157 -4,6 C -2,3 C 1,8 km/h (1 Bft)
24.02.2015 18:35 -0,7 C 1,1 C 74 % 74 % 1016,0 hPa 0,0 l/m 2,7 km/h (1 Bft) SW 225 -4,7 C -2,2 C 5,5 km/h (1 Bft)
24.02.2015 18:40 -1,0 C 1,0 C 74 % 74 % 1016,0 hPa 0,0 l/m 1,6 km/h (1 Bft) S-SW 202 -5,0 C -2,1 C 0,0 km/h (0 Bft)
24.02.2015 18:45 -1,2 C 1,0 C 74 % 74 % 1016,0 hPa 0,0 l/m 1,4 km/h (1 Bft) S 180 -5,2 C -2,2 C 2,4 km/h (1 Bft)
24.02.2015 18:50 -1,2 C 1,0 C 75 % 75 % 1016,0 hPa 0,0 l/m 1,1 km/h (1 Bft) SO 135 -5,0 C -2,5 C 1,6 km/h (1 Bft)
24.02.2015 18:55 -1,3 C 1,0 C 75 % 75 % 1016,2 hPa 0,0 l/m 1,3 km/h (1 Bft) S 180 -5,1 C -2,6 C 5,5 km/h (1 Bft)
24.02.2015 19:00 -1,3 C 1,0 C 75 % 75 % 1016,2 hPa 0,0 l/m 1,8 km/h (1 Bft) SW 225 -5,1 C -2,5 C 4,7 km/h (1 Bft)
24.02.2015 19:05 -1,2 C 1,0 C 76 % 76 % 1016,2 hPa 0,0 l/m 2,1 km/h (1 Bft) SW 225 -4,9 C -2,5 C 2,1 km/h (1 Bft)
24.02.2015 19:10 -1,2 C 1,0 C 76 % 76 % 1016,2 hPa 0,0 l/m 1,9 km/h (1 Bft) S-SO 157 -4,9 C -2,4 C 2,9 km/h (1 Bft)
24.02.2015 19:15 -1,1 C 1,0 C 76 % 76 % 1016,4 hPa 0,0 l/m 1,6 km/h (1 Bft) S-SO 157 -4,8 C -2,4 C 0,0 km/h (0 Bft)
24.02.2015 19:20 -1,3 C 1,0 C 76 % 76 % 1016,4 hPa 0,0 l/m 1,0 km/h (0 Bft) SO 135 -5,0 C -2,4 C 0,0 km/h (0 Bft)
24.02.2015 19:25 -1,4 C 1,0 C 76 % 76 % 1016,4 hPa 0,0 l/m 0,8 km/h (0 Bft) S-SW 202 -5,1 C -2,5 C 4,5 km/h (1 Bft)
24.02.2015 19:30 -1,3 C 1,0 C 76 % 76 % 1016,4 hPa 0,0 l/m 1,3 km/h (1 Bft) SW 225 -5,0 C -2,4 C 0,0 km/h (0 Bft)
24.02.2015 19:35 -1,5 C 1,0 C 76 % 76 % 1016,6 hPa 0,0 l/m 1,3 km/h (1 Bft) SO 135 -5,2 C -2,5 C 0,0 km/h (0 Bft)
24.02.2015 19:40 -1,5 C 1,0 C 77 % 77 % 1016,6 hPa 0,0 l/m 1,0 km/h (0 Bft) S 180 -5,0 C -2,6 C 0,0 km/h (0 Bft)
24.02.2015 19:45 -1,6 C 1,0 C 77 % 77 % 1016,6 hPa 0,0 l/m 0,6 km/h (0 Bft) S-SW 202 -5,1 C -2,6 C 0,0 km/h (0 Bft)
24.02.2015 19:50 -1,5 C 1,0 C 77 % 77 % 1016,6 hPa 0,0 l/m 0,8 km/h (0 Bft) S-SW 202 -5,0 C -2,6 C 0,0 km/h (0 Bft)
24.02.2015 19:55 -1,6 C 1,0 C 77 % 77 % 1016,8 hPa 0,0 l/m 1,0 km/h (0 Bft) SO 135 -5,1 C -2,6 C 0,0 km/h (0 Bft)
24.02.2015 20:00 -1,9 C 1,0 C 77 % 77 % 1016,8 hPa 0,0 l/m 0,2 km/h (0 Bft) SO 135 -5,4 C -2,8 C 0,0 km/h (0 Bft)
24.02.2015 20:05 -2,1 C 1,0 C 77 % 77 % 1016,8 hPa 0,0 l/m 0,0 km/h (0 Bft) S-SO 157 -5,6 C -3,0 C 1,6 km/h (1 Bft)
24.02.2015 20:10 -2,0 C 1,0 C 77 % 77 % 1016,8 hPa 0,0 l/m 0,2 km/h (0 Bft) S 180 -5,5 C -3,3 C 1,8 km/h (1 Bft)
24.02.2015 20:15 -1,7 C 1,0 C 78 % 78 % 1016,9 hPa 0,0 l/m 0,6 km/h (0 Bft) SW 225 -5,0 C -3,1 C 3,5 km/h (1 Bft)
24.02.2015 20:20 -1,7 C 1,0 C 78 % 78 % 1016,9 hPa 0,0 l/m 1,9 km/h (1 Bft) W 270 -5,0 C -2,8 C 6,9 km/h (2 Bft)
24.02.2015 20:25 -1,6 C 1,0 C 78 % 78 % 1016,9 hPa 0,0 l/m 2,4 km/h (1 Bft) S-SW 202 -4,9 C -2,9 C 3,7 km/h (1 Bft)
24.02.2015 20:30 -1,5 C 1,0 C 78 % 78 % 1016,9 hPa 0,0 l/m 2,1 km/h (1 Bft) S-SW 202 -4,8 C -2,6 C 2,6 km/h (1 Bft)
24.02.2015 20:35 -1,5 C 1,0 C 78 % 78 % 1017,1 hPa 0,0 l/m 1,9 km/h (1 Bft) S 180 -4,8 C -2,5 C 3,2 km/h (1 Bft)
24.02.2015 20:40 -1,3 C 1,0 C 78 % 78 % 1017,1 hPa 0,0 l/m 2,6 km/h (1 Bft) SW 225 -4,6 C -2,6 C 5,1 km/h (1 Bft)
24.02.2015 20:45 -1,1 C 1,0 C 78 % 78 % 1017,1 hPa 0,0 l/m 3,1 km/h (1 Bft) S 180 -4,4 C -2,8 C 4,3 km/h (1 Bft)
24.02.2015 20:50 -0,9 C 1,0 C 78 % 78 % 1017,1 hPa 0,0 l/m 3,1 km/h (1 Bft) S-SO 157 -4,2 C -2,4 C 2,3 km/h (1 Bft)
24.02.2015 20:55 -0,9 C 1,0 C 77 % 77 % 1017,3 hPa 0,0 l/m 2,9 km/h (1 Bft) SW 225 -4,4 C -2,3 C 4,3 km/h (1 Bft)
24.02.2015 21:00 -0,9 C 1,1 C 77 % 77 % 1017,3 hPa 0,0 l/m 2,9 km/h (1 Bft) S-SW 202 -4,4 C -2,3 C 2,7 km/h (1 Bft)
24.02.2015 21:05 -0,7 C 1,1 C 77 % 77 % 1017,3 hPa 0,0 l/m 3,1 km/h (1 Bft) S 180 -4,2 C -2,4 C 3,4 km/h (1 Bft)
24.02.2015 21:10 -0,8 C 1,1 C 77 % 77 % 1017,3 hPa 0,0 l/m 2,7 km/h (1 Bft) S-SW 202 -4,3 C -2,0 C 3,5 km/h (1 Bft)
24.02.2015 21:15 -0,7 C 1,1 C 77 % 77 % 1017,6 hPa 0,0 l/m 2,6 km/h (1 Bft) S-SW 202 -4,2 C -1,9 C 4,3 km/h (1 Bft)
24.02.2015 21:20 -0,7 C 1,1 C 77 % 77 % 1017,6 hPa 0,0 l/m 3,1 km/h (1 Bft) S 180 -4,2 C -2,3 C 2,1 km/h (1 Bft)
24.02.2015 21:25 -0,7 C 1,1 C 77 % 77 % 1017,6 hPa 0,0 l/m 3,1 km/h (1 Bft) S 180 -4,2 C -2,3 C 2,3 km/h (1 Bft)
24.02.2015 21:30 -0,8 C 1,1 C 77 % 77 % 1017,6 hPa 0,0 l/m 2,6 km/h (1 Bft) S-SO 157 -4,3 C -1,9 C 3,7 km/h (1 Bft)
24.02.2015 21:35 -0,9 C 1,1 C 76 % 76 % 1017,7 hPa 0,0 l/m 1,8 km/h (1 Bft) S 180 -4,6 C -1,7 C 0,0 km/h (0 Bft)
24.02.2015 21:40 -0,8 C 1,1 C 77 % 77 % 1017,7 hPa 0,0 l/m 2,1 km/h (1 Bft) S-SW 202 -4,3 C -1,7 C 5,6 km/h (1 Bft)
24.02.2015 21:45 -0,8 C 1,1 C 77 % 77 % 1017,7 hPa 0,0 l/m 2,7 km/h (1 Bft) S-SW 202 -4,3 C -2,1 C 3,1 km/h (1 Bft)
24.02.2015 21:50 -0,7 C 1,1 C 77 % 77 % 1017,7 hPa 0,0 l/m 3,5 km/h (1 Bft) S-SW 202 -4,2 C -2,6 C 4,5 km/h (1 Bft)
24.02.2015 21:55 -0,7 C 1,1 C 76 % 76 % 1017,9 hPa 0,0 l/m 3,2 km/h (1 Bft) S 180 -4,4 C -2,4 C 3,4 km/h (1 Bft)
24.02.2015 22:00 -0,8 C 1,1 C 76 % 76 % 1017,9 hPa 0,0 l/m 2,7 km/h (1 Bft) S-SW 202 -4,5 C -2,0 C 2,7 km/h (1 Bft)
24.02.2015 22:05 -0,7 C 1,1 C 76 % 76 % 1017,9 hPa 0,0 l/m 3,1 km/h (1 Bft) S-SO 157 -4,4 C -2,3 C 3,2 km/h (1 Bft)
24.02.2015 22:10 -0,8 C 1,1 C 76 % 76 % 1017,9 hPa 0,0 l/m 2,6 km/h (1 Bft) S-SO 157 -4,5 C -1,9 C 0,0 km/h (0 Bft)
24.02.2015 22:15 -1,1 C 1,1 C 76 % 76 % 1017,9 hPa 0,0 l/m 1,4 km/h (1 Bft) SO 135 -4,8 C -1,8 C 0,0 km/h (0 Bft)
24.02.2015 22:20 -1,4 C 1,0 C 76 % 76 % 1017,9 hPa 0,0 l/m 0,2 km/h (0 Bft) SO 135 -5,1 C -2,0 C 0,0 km/h (0 Bft)
24.02.2015 22:25 -1,3 C 1,0 C 77 % 77 % 1017,9 hPa 0,0 l/m 0,3 km/h (0 Bft) S-SW 202 -4,8 C -2,2 C 3,2 km/h (1 Bft)
24.02.2015 22:30 -1,1 C 1,0 C 77 % 77 % 1017,9 hPa 0,0 l/m 1,4 km/h (1 Bft) SW 225 -4,6 C -2,1 C 3,4 km/h (1 Bft)
24.02.2015 22:35 -1,2 C 1,0 C 77 % 77 % 1018,1 hPa 0,0 l/m 1,4 km/h (1 Bft) W-SW 247 -4,7 C -2,1 C 1,8 km/h (1 Bft)
24.02.2015 22:40 -1,4 C 1,0 C 77 % 77 % 1018,1 hPa 0,0 l/m 0,3 km/h (0 Bft) SW 225 -4,9 C -2,3 C 2,7 km/h (1 Bft)
24.02.2015 22:45 -1,5 C 1,0 C 77 % 77 % 1018,1 hPa 0,0 l/m 0,2 km/h (0 Bft) S-SO 157 -5,0 C -2,4 C 0,0 km/h (0 Bft)
24.02.2015 22:50 -1,6 C 1,0 C 77 % 77 % 1018,1 hPa 0,0 l/m 0,2 km/h (0 Bft) W-SW 247 -5,1 C -2,6 C 0,0 km/h (0 Bft)
24.02.2015 22:55 -1,7 C 1,0 C 77 % 77 % 1018,0 hPa 0,0 l/m 0,0 km/h (0 Bft) S-SO 157 -5,2 C -2,7 C 0,0 km/h (0 Bft)
24.02.2015 23:00 -1,6 C 1,0 C 77 % 77 % 1018,0 hPa 0,0 l/m 0,0 km/h (0 Bft) W-NW 292 -5,1 C -2,7 C 0,0 km/h (0 Bft)
24.02.2015 23:05 -1,5 C 1,0 C 77 % 77 % 1018,0 hPa 0,0 l/m 0,2 km/h (0 Bft) SO 135 -5,0 C -2,7 C 0,0 km/h (0 Bft)
24.02.2015 23:10 -1,5 C 1,0 C 77 % 77 % 1018,0 hPa 0,0 l/m 0,2 km/h (0 Bft) W-SW 247 -5,0 C -2,7 C 0,0 km/h (0 Bft)
24.02.2015 23:15 -1,7 C 1,0 C 77 % 77 % 1018,2 hPa 0,0 l/m 0,0 km/h (0 Bft) NW 315 -5,2 C -2,7 C 0,0 km/h (0 Bft)
24.02.2015 23:20 -1,9 C 1,0 C 78 % 78 % 1018,2 hPa 0,0 l/m 0,0 km/h (0 Bft) NO 45 -5,2 C -2,8 C 0,0 km/h (0 Bft)
24.02.2015 23:25 -2,0 C 1,0 C 78 % 78 % 1018,2 hPa 0,0 l/m 0,0 km/h (0 Bft) NO 45 -5,3 C -2,9 C 0,0 km/h (0 Bft)
24.02.2015 23:30 -2,3 C 1,0 C 78 % 78 % 1018,2 hPa 0,0 l/m 0,0 km/h (0 Bft) NO 45 -5,6 C -3,1 C 0,0 km/h (0 Bft)
24.02.2015 23:35 -2,4 C 1,0 C 78 % 78 % 1018,2 hPa 0,0 l/m 0,0 km/h (0 Bft) NO 45 -5,7 C -3,2 C 0,0 km/h (0 Bft)
24.02.2015 23:40 -2,5 C 1,0 C 78 % 78 % 1018,2 hPa 0,0 l/m 0,0 km/h (0 Bft) NO 45 -5,8 C -3,4 C 0,0 km/h (0 Bft)
24.02.2015 23:45 -2,5 C 1,0 C 78 % 78 % 1018,2 hPa 0,0 l/m 0,0 km/h (0 Bft) NO 45 -5,8 C -3,5 C 0,0 km/h (0 Bft)
24.02.2015 23:50 -2,7 C 1,0 C 78 % 78 % 1018,2 hPa 0,0 l/m 0,0 km/h (0 Bft) N-NO 22 -6,0 C -3,7 C 0,0 km/h (0 Bft)
24.02.2015 23:55 -2,9 C 1,0 C 78 % 78 % 1018,2 hPa 0,0 l/m 0,0 km/h (0 Bft) SO 135 -6,2 C -3,7 C 0,0 km/h (0 Bft)
_ Min-Zeit 23:55 23:55 14:18 14:18 03:10 - 23:55 - - 23:55 23:55 23:55
Minimum _ -2,9 C 1,0 C 58 % 58 % 1006,8 hPa - 0,0 km/h (0 Bft) - - -6,2 C -3,7 C 0,0 km/h (0 Bft)
_ Max-Zeit 12:35 08:25 04:35 04:35 23:55 23:55 00:10 - - 00:00 12:35 00:00
Maximum _ 5,1 C 1,2 C 88 % 88 % 1018,2 hPa 0,0 l/m 8,2 km/h
W-SW (2 Bft)
- - 0,7 C 6,2 C 17,7 km/h
SW (3 Bft)
Durchschnitt _ 1,2 C 1,1 C 77 % 77 % 1012,3 hPa #0,0 l/m 3,4 km/h (1 Bft) SW - -2,5 C 0,2 C 4,2 km/h (1 Bft)